CZ-2D DEB (43035 NORAD) Tracking and Keplerian Element Data

This shows tracking and keplerian element data for the satellite.

Feedback or suggestion? Click here.




ElementValue
Catalog43035
NameCZ-2D DEB
Epoch Orbit443
Epoch Day1.74380344
Epoch Year2018
RAAN78.938
Inclination97.3642
Eccentricity0.0015502
Argument of Perigee295.5754
Mean Anonmoly64.3831
Mean Motion15.25123863
Decay Rate1.743E-05
L11 43035U 17077B 18001.74380344 .00001743 00000-0 72288-4 0 9996
L22 43035 97.3642 78.9380 0015502 295.5754 64.3831 15.25123863 4435

Live tracking and technical data element details for CZ-2D DEB (NORAD 43035). CZ-2D DEB can be tracked NOW for your location showing map with azimuth and elevation plus other details from your city location.

Track the satellite on the map from your city or location and see movement details for azimuth, elevation, latitude, longitude, range, height, and movement on the map or in text.







IsCatalogInMostPopularTable: catalog: 43035, numindb: 161
Update: records affected: 1



GetName: 43035 CZ-2D DEB

Hit Count: updated at: Mon, 19 Nov 2018 14:16:46 GMT